Change the Weather History Date:

Friday, November 9, 2012

  Actual Average Record
Temperature  
Mean Temperature 51 °F -  
Max Temperature 69 °F - 81 °F (1975)
Min Temperature 33 °F - 18 °F (1976)
Degree Days  
Heating Degree Days 14    
Month to date heating degree days  
Since 1 July heating degree days  
Cooling Degree Days 0    
Month to date cooling degree days  
Growing Degree Days 1 (Base 50)    
Moisture  
Dew Point 37 °F    
Average Humidity 70    
Maximum Humidity 100    
Minimum Humidity 33    
Precipitation  
Precipitation 0.00 in - 1.77 in (1987)
Month to date precipitation  
Sea Level Pressure  
Sea Level Pressure 30.19 in    
Wind  
Wind Speed 4 mph (South)    
Max Wind Speed 13 mph    
Max Gust Speed -    
Visibility 7 miles    
Events      
T = Trace of Precipitation, MM = Missing Value Source: NWS Daily Summary

Daily Weather History Graph

Daily Weather History Graph

Search for Another Location

Airport or City:

Trip Planner

Search our weather history database for the weather conditions in past years. The results will help you decide how hot, cold, wet, or windy it might be!

Date:

Astronomy

Nov. 09, 2012 Rise Set
Actual Time 6:21 AM CST 4:44 PM CST
Civil Twilight 5:54 AM CST 5:12 PM CST
Nautical Twilight 5:23 AM CST 5:42 PM CST
Astronomical Twilight 4:53 AM CST 6:13 PM CST
Moon 1:27 AM CST (11/9) 1:51 PM CST (11/9)
Length of Visible Light 11h 17m
Length of Day
10h 23m
Waning Crescent, 23% of the Moon is Illuminated
Nov 9
Waning Crescent
Nov 13
New
Nov 20
First Quarter
Nov 28
Full
Dec 6
Last Quarter

Hourly Weather History & Observations

Time (CST) Temp. Windchill Dew Point Humidity Pressure Visibility Wind Dir Wind Speed Gust Speed Precip Events Conditions
12:52 AM 36.0 °F 33.3 °F 35.1 °F 97% 30.18 in 3.0 mi SE 3.5 mph - N/A   Clear
1:52 AM 36.0 °F 32.1 °F 34.0 °F 93% 30.18 in 5.0 mi SE 4.6 mph - N/A   Clear
2:52 AM 36.0 °F - 35.1 °F 97% 30.20 in 2.5 mi Calm Calm - N/A   Clear
3:42 AM 33.8 °F - 33.8 °F 100% 30.21 in 2.5 mi Calm Calm - N/A   Clear
3:52 AM 35.1 °F - 33.1 °F 92% 30.22 in 2.0 mi Calm Calm - N/A   Clear
4:22 AM 33.8 °F 30.8 °F 33.8 °F 100% 30.23 in 0.8 mi SSE 3.5 mph - N/A   Clear
4:36 AM 33.8 °F - 33.8 °F 100% 30.23 in 1.2 mi Calm Calm - N/A   Clear
4:52 AM 33.1 °F 30.0 °F 33.1 °F 100% 30.24 in 2.0 mi SE 3.5 mph - N/A   Clear
5:52 AM 34.0 °F 29.8 °F 33.1 °F 96% 30.25 in 3.0 mi SE 4.6 mph - N/A   Clear
6:21 AM 33.8 °F 29.6 °F 33.8 °F 100% 30.24 in 2.0 mi SSE 4.6 mph - N/A   Clear
6:52 AM 35.1 °F 32.2 °F 34.0 °F 96% 30.25 in 2.5 mi SE 3.5 mph - N/A   Clear
7:07 AM 37.4 °F 33.8 °F 35.6 °F 93% 30.24 in 3.0 mi SE 4.6 mph - N/A   Clear
7:52 AM 43.0 °F 40.3 °F 39.0 °F 86% 30.25 in 5.0 mi SSE 4.6 mph - N/A   Clear
8:52 AM 48.0 °F - 39.9 °F 74% 30.26 in 8.0 mi South 6.9 mph - N/A   Clear
9:52 AM 55.0 °F - 42.1 °F 62% 30.25 in 10.0 mi South 9.2 mph - N/A   Clear
10:52 AM 61.0 °F - 41.0 °F 48% 30.24 in 10.0 mi WSW 10.4 mph - N/A   Clear
11:52 AM 64.0 °F - 41.0 °F 43% 30.20 in 10.0 mi South 11.5 mph - N/A   Clear
12:52 PM 66.0 °F - 37.0 °F 34% 30.16 in 10.0 mi SSW 11.5 mph - N/A   Clear
1:52 PM 68.0 °F - 37.9 °F 33% 30.14 in 10.0 mi SSW 8.1 mph - N/A   Clear
2:52 PM 69.1 °F - 39.0 °F 33% 30.13 in 10.0 mi South 12.7 mph - N/A   Clear
3:52 PM 66.9 °F - 39.0 °F 36% 30.12 in 10.0 mi South 9.2 mph - N/A   Clear
4:52 PM 64.0 °F - 39.9 °F 41% 30.13 in 10.0 mi South 4.6 mph - N/A   Clear
5:52 PM 60.1 °F - 39.9 °F 47% 30.13 in 10.0 mi South 3.5 mph - N/A   Clear
6:52 PM 60.1 °F - 39.9 °F 47% 30.14 in 10.0 mi South 5.8 mph - N/A   Clear
7:52 PM 57.9 °F - 39.0 °F 49% 30.14 in 10.0 mi South 5.8 mph - N/A   Clear
8:52 PM 55.9 °F - 39.0 °F 53% 30.15 in 10.0 mi South 4.6 mph - N/A   Clear
9:52 PM 54.0 °F - 39.0 °F 57% 30.14 in 10.0 mi South 4.6 mph - N/A   Clear
10:52 PM 51.1 °F - 39.0 °F 63% 30.14 in 10.0 mi South 4.6 mph - N/A   Clear
11:52 PM 51.1 °F - 39.0 °F 63% 30.15 in 10.0 mi South 4.6 mph - N/A   Clear